SBI7005 UNNT-UNEE

Flight info

Callsign SBI7005
Flight time 0h 33m
Altitude 25000
Route OGATI1K OGATI OGATI4G
Aircraft E170/M-SDE3GILORVW/S

Departure

Time 2026-05-06 15:34
Airport Novosibirsk Tolmachevo Airport (UNNT)

Arrival

Time 2026-05-06 16:07
Airport Alexei Leonov Kemerovo International Airport (UNEE)
Time Latitude Longitude Altitude Speed Heading
2026-05-06 15:13 55.01149 82.66833 354 ft 0 kts 172°
2026-05-06 15:31 55.01128 82.66839 354 ft 5 kts 172°
2026-05-06 15:31 55.01097 82.66802 354 ft 7 kts 264°
2026-05-06 15:31 55.01093 82.66696 353 ft 9 kts 271°
2026-05-06 15:32 55.01226 82.66629 351 ft 12 kts 351°
2026-05-06 15:32 55.01271 82.66616 351 ft 3 kts 351°
2026-05-06 15:32 55.01302 82.66607 351 ft 5 kts 352°
2026-05-06 15:32 55.01345 82.66596 351 ft 6 kts 339°
2026-05-06 15:33 55.01376 82.66531 351 ft 7 kts 280°
2026-05-06 15:33 55.01374 82.66496 351 ft 0 kts 259°
2026-05-06 15:33 55.01373 82.66484 351 ft 1 kts 259°
2026-05-06 15:33 55.01360 82.66338 351 ft 40 kts 262°
2026-05-06 15:34 55.01282 82.65467 351 ft 103 kts 260°
2026-05-06 15:34 55.01146 82.63928 385 ft 146 kts 262°
2026-05-06 15:34 55.00973 82.62106 774 ft 159 kts 262°
2026-05-06 15:34 55.00780 82.60291 1570 ft 147 kts 262°
2026-05-06 15:35 55.00617 82.58554 2143 ft 157 kts 265°
2026-05-06 15:35 55.00518 82.56535 2528 ft 178 kts 282°
2026-05-06 15:35 55.01232 82.54703 2918 ft 193 kts 326°
2026-05-06 15:35 55.02578 82.54012 2999 ft 207 kts 346°
2026-05-06 15:36 55.03982 82.53616 3016 ft 208 kts 346°
2026-05-06 15:36 55.05426 82.53364 3104 ft 221 kts
2026-05-06 15:36 55.06805 82.54745 3636 ft 243 kts 49°
2026-05-06 15:36 55.07377 82.57491 4367 ft 251 kts 89°
2026-05-06 15:37 55.06866 82.60328 5090 ft 251 kts 127°
2026-05-06 15:37 55.05810 82.62746 5804 ft 251 kts 130°
2026-05-06 15:37 55.04761 82.65153 6476 ft 254 kts 125°
2026-05-06 15:37 55.03963 82.67890 7141 ft 258 kts 111°
2026-05-06 15:38 55.03430 82.70831 7806 ft 260 kts 104°
2026-05-06 15:38 55.03026 82.73921 8484 ft 263 kts 101°
2026-05-06 15:38 55.02697 82.77048 9164 ft 265 kts 99°
2026-05-06 15:38 55.02405 82.80191 9831 ft 268 kts 98°
2026-05-06 15:39 55.02123 82.83446 10479 ft 273 kts 98°
2026-05-06 15:39 55.01844 82.86751 10970 ft 285 kts 98°
2026-05-06 15:39 55.01555 82.90244 11392 ft 299 kts 98°
2026-05-06 15:39 55.01253 82.93893 11819 ft 314 kts 98°
2026-05-06 15:40 55.00939 82.97692 12291 ft 326 kts 98°
2026-05-06 15:40 55.00610 83.01668 12907 ft 333 kts 98°
2026-05-06 15:40 55.00280 83.05639 13582 ft 338 kts 98°
2026-05-06 15:40 54.99942 83.09689 14304 ft 341 kts 98°
2026-05-06 15:41 54.99600 83.13773 15017 ft 344 kts 98°
2026-05-06 15:41 54.99252 83.17913 15715 ft 348 kts 98°
2026-05-06 15:41 54.98900 83.22084 16349 ft 352 kts 98°
2026-05-06 15:41 54.98546 83.26264 16953 ft 357 kts 98°
2026-05-06 15:42 54.98181 83.30547 17552 ft 361 kts 98°
2026-05-06 15:42 54.97809 83.34892 18186 ft 365 kts 98°
2026-05-06 15:42 54.97435 83.39243 18791 ft 368 kts 98°
2026-05-06 15:42 54.97055 83.43649 19382 ft 371 kts 98°
2026-05-06 15:43 54.96675 83.48042 19982 ft 374 kts 99°
2026-05-06 15:43 54.96284 83.52529 20572 ft 377 kts 98°
2026-05-06 15:43 54.95890 83.57031 20882 ft 377 kts 99°
2026-05-06 15:43 54.95484 83.61649 20932 ft 396 kts 99°
2026-05-06 15:44 54.95058 83.66480 20945 ft 414 kts 99°
2026-05-06 15:44 54.94619 83.71435 20914 ft 422 kts 100°
2026-05-06 15:44 54.94175 83.76424 20910 ft 422 kts 100°
2026-05-06 15:44 54.93726 83.81439 20901 ft 421 kts 100°
2026-05-06 15:45 54.93277 83.86437 20909 ft 420 kts 100°
2026-05-06 15:45 54.92821 83.91476 20910 ft 419 kts 100°
2026-05-06 15:45 54.92371 83.96442 20907 ft 420 kts 100°
2026-05-06 15:45 54.91918 84.01397 20901 ft 420 kts 101°
2026-05-06 15:46 54.91461 84.06393 20907 ft 419 kts 101°
2026-05-06 15:46 54.91000 84.11390 20905 ft 419 kts 101°
2026-05-06 15:46 54.90540 84.16361 20906 ft 421 kts 100°
2026-05-06 15:46 54.90074 84.21384 20905 ft 421 kts 101°
2026-05-06 15:47 54.89605 84.26398 20910 ft 420 kts 101°
2026-05-06 15:47 54.89140 84.31363 20903 ft 421 kts 101°
2026-05-06 15:47 54.88670 84.36353 20909 ft 419 kts 101°
2026-05-06 15:47 54.88200 84.41317 20907 ft 420 kts 101°
2026-05-06 15:48 54.87723 84.46330 20902 ft 419 kts 101°
2026-05-06 15:48 54.87246 84.51320 20893 ft 420 kts 101°
2026-05-06 15:48 54.86773 84.56250 20905 ft 416 kts 101°
2026-05-06 15:48 54.86299 84.61168 20901 ft 407 kts 101°
2026-05-06 15:49 54.86062 84.66022 20888 ft 408 kts 84°
2026-05-06 15:49 54.86788 84.70657 20773 ft 395 kts 65°
2026-05-06 15:49 54.87936 84.74944 20144 ft 390 kts 64°
2026-05-06 15:49 54.89072 84.79142 19281 ft 393 kts 64°
2026-05-06 15:50 54.90230 84.83439 18483 ft 392 kts 64°
2026-05-06 15:50 54.91372 84.87683 17782 ft 388 kts 64°
2026-05-06 15:50 54.92493 84.91859 17512 ft 386 kts 63°
2026-05-06 15:50 54.93636 84.96122 17160 ft 386 kts 64°
2026-05-06 15:51 54.94762 85.00333 16738 ft 382 kts 64°
2026-05-06 15:51 54.95856 85.04430 16321 ft 377 kts 64°
2026-05-06 15:51 54.96960 85.08573 15914 ft 374 kts 64°
2026-05-06 15:51 54.98042 85.12639 15498 ft 371 kts 64°
2026-05-06 15:52 54.99107 85.16648 15096 ft 368 kts 64°
2026-05-06 15:52 55.00175 85.20676 14688 ft 366 kts 64°
2026-05-06 15:52 55.01240 85.24703 14284 ft 364 kts 64°
2026-05-06 15:52 55.02284 85.28654 13888 ft 361 kts 64°
2026-05-06 15:53 55.03325 85.32600 13509 ft 359 kts 64°
2026-05-06 15:53 55.04361 85.36538 13110 ft 357 kts 64°
2026-05-06 15:53 55.05386 85.40437 12723 ft 356 kts 64°
2026-05-06 15:53 55.06414 85.44358 12337 ft 354 kts 64°
2026-05-06 15:54 55.07434 85.48252 11941 ft 349 kts 64°
2026-05-06 15:54 55.08421 85.52028 11558 ft 345 kts 64°
2026-05-06 15:54 55.09405 85.55798 11177 ft 335 kts 64°
2026-05-06 15:54 55.10350 85.59427 10808 ft 325 kts 64°
2026-05-06 15:55 55.11267 85.62949 10457 ft 315 kts 64°
2026-05-06 15:55 55.12159 85.66383 10111 ft 307 kts 64°
2026-05-06 15:55 55.13017 85.69692 9778 ft 298 kts 64°
2026-05-06 15:55 55.13863 85.72960 9454 ft 291 kts 64°
2026-05-06 15:56 55.14676 85.76105 9147 ft 284 kts 64°
2026-05-06 15:56 55.15482 85.79225 8829 ft 277 kts 64°
2026-05-06 15:56 55.16264 85.82256 8529 ft 271 kts 64°
2026-05-06 15:56 55.17022 85.85197 8260 ft 264 kts 64°
2026-05-06 15:57 55.17759 85.88064 8038 ft 258 kts 64°
2026-05-06 15:57 55.18492 85.90917 7768 ft 258 kts 64°
2026-05-06 15:57 55.19228 85.93783 7490 ft 257 kts 64°
2026-05-06 15:57 55.19951 85.96605 7209 ft 258 kts 63°
2026-05-06 15:58 55.20682 85.99461 6929 ft 256 kts 63°
2026-05-06 15:58 55.21405 86.02292 6646 ft 253 kts 63°
2026-05-06 15:58 55.22109 86.05048 6369 ft 250 kts 63°
2026-05-06 15:58 55.22822 86.07844 6089 ft 249 kts 63°
2026-05-06 15:59 55.23527 86.10613 5817 ft 249 kts 63°
2026-05-06 15:59 55.24227 86.13369 5543 ft 249 kts 63°
2026-05-06 15:59 55.24927 86.16122 5268 ft 248 kts 63°
2026-05-06 15:59 55.25616 86.18838 4999 ft 245 kts 63°
2026-05-06 16:00 55.26306 86.21560 4729 ft 244 kts 63°
2026-05-06 16:00 55.26991 86.24268 4459 ft 242 kts 63°
2026-05-06 16:00 55.27667 86.26943 4193 ft 241 kts 63°
2026-05-06 16:00 55.28338 86.29600 3930 ft 238 kts 63°
2026-05-06 16:01 55.29010 86.32265 3663 ft 237 kts 63°
2026-05-06 16:01 55.29676 86.34909 3400 ft 236 kts 63°
2026-05-06 16:01 55.30328 86.37503 3144 ft 233 kts 63°
2026-05-06 16:01 55.31143 86.39830 2929 ft 219 kts 34°
2026-05-06 16:02 55.32487 86.40630 2713 ft 197 kts 349°
2026-05-06 16:02 55.33653 86.39717 2591 ft 179 kts 320°
2026-05-06 16:02 55.34598 86.38384 2568 ft 165 kts 316°
2026-05-06 16:02 55.35413 86.37072 2486 ft 155 kts 306°
2026-05-06 16:03 55.35709 86.35326 2500 ft 155 kts 260°
2026-05-06 16:03 55.35376 86.33513 2540 ft 156 kts 251°
2026-05-06 16:03 55.34996 86.31809 2601 ft 144 kts 251°
2026-05-06 16:03 55.34636 86.30244 2488 ft 136 kts 249°
2026-05-06 16:04 55.34281 86.28738 2477 ft 132 kts 250°
2026-05-06 16:04 55.33866 86.27303 2402 ft 132 kts 243°
2026-05-06 16:04 55.33408 86.25881 2209 ft 133 kts 242°
2026-05-06 16:04 55.32930 86.24510 2190 ft 134 kts 227°
2026-05-06 16:05 55.32275 86.23312 2012 ft 133 kts 231°
2026-05-06 16:05 55.31692 86.22040 1851 ft 133 kts 235°
2026-05-06 16:05 55.31160 86.20705 1721 ft 134 kts 237°
2026-05-06 16:05 55.30608 86.19389 1640 ft 135 kts 233°
2026-05-06 16:06 55.30047 86.18070 1565 ft 136 kts 235°
2026-05-06 16:06 55.29503 86.16707 1336 ft 137 kts 233°
2026-05-06 16:06 55.28932 86.15363 1209 ft 136 kts 234°
2026-05-06 16:06 55.28370 86.14011 1043 ft 137 kts 232°
2026-05-06 16:07 55.27808 86.12675 895 ft 138 kts 233°
2026-05-06 16:07 55.27299 86.11478 880 ft 98 kts 234°
2026-05-06 16:07 55.26987 86.10726 880 ft 65 kts 234°
2026-05-06 16:07 55.26749 86.10154 880 ft 34 kts 237°
2026-05-06 16:08 55.26676 86.09941 880 ft 9 kts 173°
2026-05-06 16:08 55.26696 86.10036 880 ft 14 kts 46°
2026-05-06 16:08 55.26781 86.10230 880 ft 26 kts 53°
2026-05-06 16:08 55.26913 86.10548 880 ft 37 kts 53°
2026-05-06 16:09 55.27082 86.10944 880 ft 41 kts 54°
2026-05-06 16:09 55.27246 86.11343 880 ft 40 kts 52°
2026-05-06 16:09 55.27416 86.11737 880 ft 40 kts 53°
2026-05-06 16:09 55.27581 86.12131 880 ft 39 kts 53°
2026-05-06 16:10 55.27745 86.12520 880 ft 39 kts 53°
2026-05-06 16:10 55.27845 86.12736 880 ft 13 kts 24°
2026-05-06 16:10 55.27918 86.12685 880 ft 3 kts 324°
2026-05-06 16:10 55.27940 86.12656 880 ft 4 kts 321°
2026-05-06 16:11 55.27967 86.12613 880 ft 6 kts 311°
2026-05-06 16:11 55.27996 86.12539 880 ft 9 kts 303°
2026-05-06 16:11 55.28041 86.12425 880 ft 12 kts 305°
2026-05-06 16:11 55.28085 86.12299 880 ft 12 kts 279°
2026-05-06 16:12 55.28051 86.12163 880 ft 12 kts 236°
2026-05-06 16:12 55.27997 86.12028 880 ft 13 kts 234°
2026-05-06 16:12 55.27942 86.11884 880 ft 14 kts 237°
2026-05-06 16:12 55.27905 86.11774 880 ft 8 kts 272°
2026-05-06 16:13 55.27945 86.11699 880 ft 9 kts 324°
2026-05-06 16:13 55.27990 86.11643 880 ft 4 kts 324°
2026-05-06 16:13 55.27994 86.11636 880 ft 0 kts 324°